When you browse on this site, cookies collect data to enhance your experience and personalize the content and advertising you see.
Visit our Privacy Policy to learn more. By continuing to use the site, you agree to this use of cookies and data.
  • In Romania
  • List of Countries
  • For 7 days
  • Water Temperature
  • Weather Map
  • Weather Widgets
  • user-avatar
    Login

    Hourly Weather Świdnica

    Today, 21 August, Wednesday

    Time Temperature Precipitation Wind Pressure Humidity
    00:00 +16°C° 3.6 mm 5 mps 741 mmHg 96%
    01:00 +15°C° 0 mm 4 mps 742 mmHg 96%
    02:00 +15°C° 2.7 mm 5 mps 742 mmHg 95%
    03:00 +15°C° 2.7 mm 5 mps 742 mmHg 95%
    04:00 +15°C° 2.7 mm 6 mps 743 mmHg 94%
    05:00 +14°C° 1 mm 5 mps 744 mmHg 94%
    06:00 +14°C° 1 mm 4 mps 744 mmHg 95%
    07:00 +14°C° 1 mm 3 mps 745 mmHg 95%
    08:00 +14°C° 0.2 mm 3 mps 745 mmHg 93%
    09:00 +16°C° 0.2 mm 2 mps 746 mmHg 92%
    10:00 +16°C° 0.2 mm 2 mps 746 mmHg 91%
    11:00 +17°C° 0 mm 2 mps 746 mmHg 84%
    12:00 +18°C° 0 mm 2 mps 746 mmHg 78%
    13:00 +20°C° 0 mm 2 mps 747 mmHg 71%
    14:00 +21°C° 0.1 mm 1 mps 746 mmHg 68%
    15:00 +21°C° 0.1 mm 1 mps 746 mmHg 65%
    16:00 +22°C° 0.1 mm 1 mps 746 mmHg 62%
    17:00 +21°C° 0.1 mm 1 mps 746 mmHg 68%
    18:00 +19°C° 0.1 mm 1 mps 746 mmHg 73%
    19:00 +18°C° 0.1 mm 1 mps 746 mmHg 79%
    20:00 +15°C° 0 mm 0 mps 746 mmHg 81%
    21:00 +15°C° 0 mm 0 mps 747 mmHg 83%
    22:00 +14°C° 0 mm 0 mps 747 mmHg 85%
    23:00 +14°C° 0 mm 0 mps 747 mmHg 86%

    Tomorrow, 22 August, Thursday

    Time Temperature Precipitation Wind Pressure Humidity
    00:00 +13°C° 0 mm 0 mps 747 mmHg 87%
    01:00 +13°C° 0 mm 0 mps 747 mmHg 88%
    02:00 +13°C° 0 mm 0 mps 747 mmHg 89%
    03:00 +13°C° 0 mm 0 mps 746 mmHg 90%
    04:00 +12°C° 0 mm 0 mps 746 mmHg 91%
    05:00 +14°C° 0 mm 1 mps 746 mmHg 89%
    06:00 +15°C° 0 mm 1 mps 747 mmHg 87%
    07:00 +16°C° 0 mm 1 mps 747 mmHg 85%
    08:00 +17°C° 0 mm 2 mps 747 mmHg 81%
    09:00 +18°C° 0 mm 3 mps 747 mmHg 76%
    10:00 +19°C° 0 mm 3 mps 747 mmHg 71%
    11:00 +20°C° 0 mm 3 mps 747 mmHg 68%
    12:00 +21°C° 0 mm 4 mps 746 mmHg 65%
    13:00 +22°C° 0 mm 4 mps 746 mmHg 62%
    14:00 +22°C° 0 mm 4 mps 746 mmHg 61%
    15:00 +22°C° 0 mm 4 mps 746 mmHg 61%
    16:00 +22°C° 0 mm 4 mps 745 mmHg 60%
    17:00 +21°C° 0 mm 3 mps 745 mmHg 66%
    18:00 +19°C° 0 mm 3 mps 745 mmHg 71%
    19:00 +18°C° 0 mm 2 mps 745 mmHg 77%
    20:00 +17°C° 0 mm 2 mps 745 mmHg 79%
    21:00 +16°C° 0 mm 1 mps 746 mmHg 82%
    22:00 +15°C° 0 mm 1 mps 746 mmHg 84%
    23:00 +15°C° 0 mm 1 mps 746 mmHg 86%

    Day after tomorrow, 23 August, Friday

    Time Temperature Precipitation Wind Pressure Humidity
    00:00 +15°C° 0 mm 1 mps 746 mmHg 87%
    01:00 +14°C° 0 mm 1 mps 746 mmHg 89%
    02:00 +14°C° 0 mm 1 mps 745 mmHg 90%
    03:00 +14°C° 0 mm 1 mps 745 mmHg 91%
    04:00 +13°C° 0 mm 1 mps 745 mmHg 91%
    05:00 +14°C° 0 mm 1 mps 745 mmHg 89%
    06:00 +15°C° 0 mm 1 mps 745 mmHg 86%
    07:00 +16°C° 0 mm 1 mps 746 mmHg 84%
    08:00 +18°C° 0 mm 2 mps 746 mmHg 78%
    09:00 +20°C° 0 mm 3 mps 746 mmHg 73%
    10:00 +21°C° 0 mm 3 mps 746 mmHg 67%
    11:00 +22°C° 0 mm 4 mps 745 mmHg 65%
    12:00 +23°C° 0 mm 4 mps 745 mmHg 62%
    13:00 +25°C° 0 mm 4 mps 745 mmHg 59%
    14:00 +26°C° 0 mm 4 mps 745 mmHg 59%
    15:00 +26°C° 0 mm 4 mps 744 mmHg 58%
    16:00 +26°C° 0 mm 4 mps 744 mmHg 58%
    17:00 +24°C° 0 mm 3 mps 744 mmHg 64%
    18:00 +22°C° 0 mm 3 mps 743 mmHg 71%
    19:00 +20°C° 0 mm 2 mps 743 mmHg 77%
    20:00 +19°C° 0 mm 2 mps 743 mmHg 80%
    21:00 +19°C° 0 mm 2 mps 743 mmHg 83%
    22:00 +18°C° 0 mm 2 mps 744 mmHg 87%
    23:00 +19°C° 0 mm 1 mps 743 mmHg 88%

    24 August, Saturday

    Time Temperature Precipitation Wind Pressure Humidity
    00:00 +18°C° 0 mm 1 mps 743 mmHg 90%
    01:00 +18°C° 0 mm 1 mps 743 mmHg 91%
    02:00 +16°C° 0 mm 1 mps 743 mmHg 92%
    03:00 +16°C° 0 mm 1 mps 743 mmHg 92%
    04:00 +16°C° 0 mm 1 mps 742 mmHg 93%
    05:00 +16°C° 0 mm 1 mps 742 mmHg 90%
    06:00 +18°C° 0 mm 1 mps 742 mmHg 88%
    07:00 +19°C° 0 mm 1 mps 742 mmHg 85%
    08:00 +20°C° 0 mm 2 mps 742 mmHg 80%
    09:00 +21°C° 0 mm 2 mps 743 mmHg 74%
    10:00 +24°C° 0 mm 2 mps 743 mmHg 69%
    11:00 +25°C° 0 mm 2 mps 742 mmHg 67%
    12:00 +26°C° 0 mm 2 mps 742 mmHg 64%
    13:00 +27°C° 0 mm 2 mps 742 mmHg 62%
    14:00 +27°C° 0.1 mm 2 mps 742 mmHg 63%
    15:00 +27°C° 0.1 mm 2 mps 741 mmHg 64%
    16:00 +28°C° 0.1 mm 2 mps 741 mmHg 65%
    17:00 +26°C° 0.2 mm 2 mps 741 mmHg 70%
    18:00 +25°C° 0.2 mm 2 mps 741 mmHg 75%
    19:00 +23°C° 0.2 mm 1 mps 741 mmHg 80%
    20:00 +23°C° 0.3 mm 1 mps 741 mmHg 82%
    21:00 +22°C° 0.3 mm 1 mps 741 mmHg 84%
    22:00 +21°C° 0.3 mm 1 mps 741 mmHg 86%
    23:00 +21°C° 0.7 mm 1 mps 741 mmHg 87%

    25 August, Sunday

    Time Temperature Precipitation Wind Pressure Humidity
    00:00 +21°C° 0.7 mm 1 mps 741 mmHg 89%
    01:00 +21°C° 0.7 mm 1 mps 741 mmHg 90%
    02:00 +20°C° 0.7 mm 1 mps 740 mmHg 91%
    03:00 +20°C° 0.7 mm 1 mps 740 mmHg 92%
    04:00 +20°C° 0.7 mm 1 mps 740 mmHg 93%
    05:00 +20°C° 0.8 mm 1 mps 740 mmHg 92%
    06:00 +20°C° 0.8 mm 2 mps 740 mmHg 91%
    07:00 +20°C° 0.8 mm 2 mps 740 mmHg 90%
    08:00 +23°C° 0.3 mm 2 mps 741 mmHg 86%
    09:00 +24°C° 0.3 mm 2 mps 741 mmHg 81%
    10:00 +25°C° 0.3 mm 3 mps 741 mmHg 76%
    11:00 +26°C° 0.6 mm 3 mps 741 mmHg 72%
    12:00 +28°C° 0.6 mm 3 mps 741 mmHg 67%
    13:00 +29°C° 0.6 mm 3 mps 740 mmHg 63%
    14:00 +29°C° 0.4 mm 3 mps 740 mmHg 63%
    15:00 +29°C° 0.4 mm 2 mps 740 mmHg 63%
    16:00 +29°C° 0.4 mm 2 mps 740 mmHg 64%
    17:00 +27°C° 0.1 mm 2 mps 740 mmHg 68%
    18:00 +26°C° 0.1 mm 2 mps 739 mmHg 72%
    19:00 +24°C° 0.1 mm 2 mps 739 mmHg 76%
    20:00 +24°C° 0.1 mm 2 mps 740 mmHg 78%
    21:00 +23°C° 0.1 mm 2 mps 740 mmHg 81%
    22:00 +21°C° 0.1 mm 2 mps 740 mmHg 83%
    23:00 +21°C° 0.1 mm 2 mps 740 mmHg 84%

    26 August, Monday

    Time Temperature Precipitation Wind Pressure Humidity
    00:00 +21°C° 0.1 mm 2 mps 740 mmHg 85%
    01:00 +20°C° 0.1 mm 2 mps 739 mmHg 86%
    02:00 +20°C° 0.1 mm 2 mps 739 mmHg 86%
    03:00 +20°C° 0.1 mm 2 mps 739 mmHg 87%
    04:00 +21°C° 0.1 mm 1 mps 739 mmHg 87%
    05:00 +21°C° 0.2 mm 2 mps 739 mmHg 85%
    06:00 +23°C° 0.2 mm 2 mps 739 mmHg 83%
    07:00 +23°C° 0.2 mm 2 mps 739 mmHg 80%
    08:00 +25°C° 0 mm 2 mps 739 mmHg 72%
    09:00 +27°C° 0 mm 2 mps 739 mmHg 64%
    10:00 +29°C° 0 mm 2 mps 739 mmHg 56%
    11:00 +30°C° 0 mm 3 mps 739 mmHg 54%
    12:00 +31°C° 0 mm 3 mps 739 mmHg 51%
    13:00 +33°C° 0 mm 4 mps 739 mmHg 49%
    14:00 +31°C° 0.1 mm 3 mps 739 mmHg 51%
    15:00 +31°C° 0.1 mm 3 mps 738 mmHg 52%
    16:00 +31°C° 0.1 mm 3 mps 738 mmHg 54%
    17:00 +29°C° 0.1 mm 3 mps 738 mmHg 60%
    18:00 +27°C° 0.1 mm 2 mps 738 mmHg 66%
    19:00 +25°C° 0.1 mm 2 mps 738 mmHg 72%
    20:00 +25°C° 0 mm 2 mps 738 mmHg 74%
    21:00 +24°C° 0 mm 2 mps 738 mmHg 75%
    22:00 +24°C° 0 mm 2 mps 738 mmHg 76%
    23:00 +23°C° 0.2 mm 2 mps 738 mmHg 77%
    Show more